Weather in Laptevka

Russia / Belgorod Oblast     50°43′29″N   35°50′26″E
temp.,
°C
wind,
m/s
gust,
m/s
humid.,
%
clouds,
%
prec.,
mm/h
press.,
hPa
HPBL,
m
11 may, tue
tue1100:00+9n91869100 0.1 1019752
03:00+9n81775100 0.1 1018581
06:00+9n81881100 0.0 1017495
09:00+13nne91578100 0.0 1017774
12:00+13ene71182100 0.0 10171188
15:00+11ene6107858 0.4 10191008
18:00+12e7106618 0.0 10191522
21:00+8ene6137816 0.0 1020841
12 may, wed
wed1200:00+8ene81381100 0.1 10201126
03:00+8e71482100 0.1 10201285
06:00+8ene6128663 0.1 1020770
09:00+10e81478100 0.1 10191384
12:00+10e91282100 0.6 10191339
15:00+10e61187100 4.0 1017975
18:00+11ese5108598 3.4 10151159
21:00+8ese3895100 4.4 1014246
13 may, thu
thu1300:00+8se613955 1.9 1014431
03:00+6se5109849 2.0 1015288
06:00+7se4694100 0.0 1015329
09:00+11se468239 0.0 1015660
12:00+15s5763100 0.0 10141402
15:00+17s576159 0.1 10141594
18:00+17sse36727 0.1 1014927
21:00+12ese3490100 0.1 101452
14 may, fri
fri1400:00+13e4789100 0.1 1013124
03:00+12ese489782 1.6 1013150
06:00+13se4119661 1.0 1012245
09:00+18se6108386 2.1 1011570
12:00+21sse6871100 0.0 10111134
15:00+23s6864100 0.0 10101521
18:00+21s4877100 1.6 1010276
21:00+17se348615 5.3 100942
15 may, sat
sat1500:00+16sse3594100 3.9 100993
03:00+14s2295100 4.4 100922
06:00+14s23895 0.0 100948
09:00+18ssw577739 0.0 1010463
12:00+20ssw57688 1.1 10101299
15:00+20sw6865100 2.1 10101379
18:00+17sw588160 2.6 1010373
21:00+15sw3587100 3.8 101173